map of DGX home
DGX - Airport
Location
City:  St. Athan, Glamorgan, Wales, United Kingdom
Near (Alt.):Barry
Name:RAF St. Athan
ICAO:EGDX
IATA:DGX

Details
Type:Airport (Aerodrome, Airfield)
Use:Military
Latitude:5124'17"N (51.404811)
Longitude:326'09"W (-3.435749)
Datum:WGS 1984
Elevation:163 ft (50 m)
Variation:1.52W (WMM2015 magnetic declination)
0.15 annual change
Runways:1
Longest:5988 × 141 ft (1825 × 43 m), paved

Time
Time Zone:UTC+0 (DST+1)
Local Time:

Weather
METAR:EGDX 181750Z AUTO 27008KT 9999 FEW050/// 20/10 Q1018

Related Locations
Nearby:
Farthest:NZBA: 11961 mi / 19249 km
Balclutha, OTA, NZ

Find:

   beyond  
but within

Other Information
Maps:
NOTAMs:
Links:
Sources:

  
  • flag of United Kingdom
  • flag of Wales
  • flag of Royal Air Force
  

Sectional Chart

Flight Planning
at skyvector.com

Satellite Image

Google Maps Satellite view

 

Copyright © 2004-2018 Karl L. Swartz. All rights reserved.
The Great Circle Mapper name and logo are trademarks of the Great Circle Mapper.
All other trademarks mentioned herein belong to their respective owners.
Please see credits for attibutions and further copyright information.

  Follow gcmap on Facebook Follow gcmap on Twitter Follow gcmap on Google+ GCmap on LinkedIn

hCard Microformat

Geo Microformat